Simultaneous Nadir Overpasses (SNOs) Predictions

Prediction of SNOs between LANDSAT-8 and METOP-B Satellite Orbit:

Table of predicted SNOs for the next 14.0 days since TLE Epoch: 1/11/2014
Index Date (LANDSAT-8) Time (LANDSAT-8) Lat,Lon (LANDSAT-8) SZA (LANDSAT-8 ) Date (METOP-B) Time (METOP-B) Lat,Lon (METOP-B) SZA (METOP-B ) Distance(km) Time Diff (sec)
1 01/11/2014 22:53:33 -81.07, 55.63 75.57 01/11/2014 22:52:33 -81.08, 55.80 75.57 2.96 60
2 01/11/2014 23:42:58 81.10,-136.32 104.49 01/11/2014 23:43:12 81.10,-136.27 104.50 0.87 14
3 01/14/2014 18:27:45 -81.06, 121.94 76.09 01/14/2014 18:26:56 -81.06, 121.92 76.11 0.45 49
4 01/14/2014 19:17:10 81.09, -70.03 103.97 01/14/2014 19:17:35 81.09, -70.13 103.97 1.70 25
5 01/17/2014 14:01:55 -81.07,-171.55 76.63 01/17/2014 14:01:17 -81.06,-171.66 76.66 1.92 38
6 01/17/2014 14:51:20 81.09, -3.54 103.42 01/17/2014 14:51:56 81.09, -3.69 103.42 2.68 36
7 01/20/2014 09:36:05 -81.08,-104.83 77.20 01/20/2014 09:35:38 -81.08,-104.94 77.22 2.09 27
8 01/20/2014 10:25:30 81.11, 63.17 102.85 01/20/2014 10:26:17 81.10, 63.05 102.85 2.19 47
9 01/23/2014 05:10:16 -81.07, -38.62 77.88 01/23/2014 05:10:00 -81.07, -38.66 77.89 0.80 16




NCC Satellite Simultaneous Nadir Overpasses (SNOs) Prediction Service
